Weather History for KSHV - August, 2013

Change the Weather History Date:

Friday, August 30, 2013

  Actual Average Record
Temperature  
Mean Temperature 85 °F 82 °F  
Max Temperature 99 °F 93 °F 107 °F (2000)
Min Temperature 71 °F 71 °F 54 °F (1986)
Degree Days  
Heating Degree Days 0 0  
Month to date heating degree days 0 0  
Since 1 June heating degree days 0 0  
Since 1 July heating degree days 0 0  
Cooling Degree Days 20 17  
Month to date cooling degree days 605 548  
Year to date cooling degree days 2021 1949  
Since 1 June cooling degree days 1634 1551  
Growing Degree Days 35 (Base 50)    
Moisture  
Dew Point 66 °F    
Average Humidity 57    
Maximum Humidity 84    
Minimum Humidity 30    
Precipitation  
Precipitation 0.00 in 0.08 in 3.30 in (1991)
Month to date precipitation 0.18 2.64  
Year to date precipitation 26.96 33.90  
Snow  
Snow 0.00 in - - ()
Month to date snowfall 0.0  
Since 1 June snowfall 0.0  
Since 1 July snowfall 0.0  
Snow Depth 0.00 in    
Sea Level Pressure  
Sea Level Pressure 29.95 in    
Wind  
Wind Speed 7 mph (SE)    
Max Wind Speed 17 mph    
Max Gust Speed 24 mph    
Visibility 10 miles    
Events      
T = Trace of Precipitation, MM = Missing Value Source: NWS Daily Summary

Daily Weather History Graph

Daily Weather History Graph

Search for Another Location

Airport or City:

Trip Planner

Search our weather history database for the weather conditions in past years. The results will help you decide how hot, cold, wet, or windy it might be!

Date:

Astronomy

Aug. 30, 2013 Rise Set
Actual Time 6:49 AM CDT 7:41 PM CDT
Civil Twilight 6:24 AM CDT 8:06 PM CDT
Nautical Twilight 5:54 AM CDT 8:36 PM CDT
Astronomical Twilight 5:23 AM CDT 9:06 PM CDT
Moon 1:38 AM CDT (8/30) 3:48 PM CDT (8/30)
Length of Visible Light 13h 42m
Length of Day
12h 52m
Waning Crescent, 29% of the Moon is Illuminated
Aug 30
Waning Crescent
Sep 5
New
Sep 12
First Quarter
Sep 19
Full
Sep 26
Last Quarter

Hourly Weather History & Observations

Time (CDT) Temp. Heat Index Dew Point Humidity Pressure Visibility Wind Dir Wind Speed Gust Speed Precip Events Conditions
12:56 AM 79.0 °F - 64.0 °F 60% 29.98 in 10.0 mi SSE 9.2 mph - N/A   Clear
1:56 AM 77.0 °F - 64.9 °F 66% 29.97 in 10.0 mi SSE 9.2 mph - N/A   Clear
2:56 AM 77.0 °F - 64.0 °F 64% 29.98 in 10.0 mi South 10.4 mph - N/A   Clear
3:56 AM 73.9 °F - 64.9 °F 73% 29.98 in 10.0 mi SSE 11.5 mph - N/A   Clear
4:56 AM 75.0 °F - 66.9 °F 76% 29.98 in 9.0 mi SSW 3.5 mph - N/A   Clear
5:56 AM 73.9 °F - 66.0 °F 76% 29.99 in 8.0 mi Calm Calm - N/A   Clear
6:56 AM 71.1 °F - 66.9 °F 87% 30.00 in 7.0 mi SSE 10.4 mph - N/A   Clear
7:56 AM 77.0 °F - 71.1 °F 82% 30.00 in 6.0 mi Calm Calm - N/A   Haze
8:56 AM 82.0 °F 87.4 °F 73.0 °F 74% 30.01 in 8.0 mi WSW 6.9 mph - N/A   Clear
9:56 AM 86.0 °F 93.0 °F 73.0 °F 65% 30.00 in 9.0 mi SSE 9.2 mph - N/A   Clear
10:56 AM 91.0 °F 95.6 °F 69.1 °F 48% 30.00 in 10.0 mi SSE 8.1 mph - N/A   Partly Cloudy
11:56 AM 93.9 °F 97.0 °F 66.0 °F 40% 29.99 in 10.0 mi East 9.2 mph - N/A   Partly Cloudy
12:56 PM 96.1 °F 99.3 °F 66.0 °F 37% 29.97 in 10.0 mi East 9.2 mph - N/A   Partly Cloudy
1:56 PM 97.0 °F 98.3 °F 63.0 °F 32% 29.94 in 10.0 mi East 10.4 mph - N/A   Scattered Clouds
2:56 PM 97.0 °F 97.4 °F 61.0 °F 30% 29.93 in 10.0 mi ENE 8.1 mph - N/A   Scattered Clouds
3:56 PM 98.1 °F 99.1 °F 62.1 °F 30% 29.90 in 10.0 mi ESE 5.8 mph - N/A   Scattered Clouds
4:56 PM 99.0 °F 100.5 °F 63.0 °F 30% 29.88 in 10.0 mi ESE 5.8 mph - N/A   Scattered Clouds
5:56 PM 97.0 °F 97.4 °F 61.0 °F 30% 29.88 in 10.0 mi Variable 4.6 mph - N/A   Scattered Clouds
6:56 PM 95.0 °F 95.6 °F 62.1 °F 33% 29.87 in 10.0 mi SSE 9.2 mph - N/A   Scattered Clouds
7:56 PM 88.0 °F 89.3 °F 64.0 °F 45% 29.88 in 10.0 mi Calm Calm - N/A   Scattered Clouds
8:56 PM 84.9 °F 86.6 °F 64.9 °F 51% 29.89 in 10.0 mi Calm Calm - N/A   Scattered Clouds
9:56 PM 84.9 °F 86.1 °F 64.0 °F 49% 29.89 in 10.0 mi ESE 3.5 mph - N/A   Scattered Clouds
10:56 PM 84.9 °F 86.6 °F 64.9 °F 51% 29.89 in 10.0 mi SE 9.2 mph 18.4 mph N/A   Partly Cloudy
11:56 PM 82.0 °F 84.5 °F 66.9 °F 60% 29.89 in 10.0 mi SSE 11.5 mph - N/A   Partly Cloudy